Location: Perryvale
(54.4667°N, 113.3833°W)
Time: 00:10:24
(UTC+00:00)

Vanguard 3 - Pass Details

Date: 22 May 2024
Orbit: 509 x 3231 km, 33.3° (Epoch: 21 June)

Event Time Altitude Azimuth Distance (km) Brightness Sun altitude
Rises 09:15:20 0° 265° (W) 6,444 11.4 -11.7°
Reaches altitude 10° 09:24:10 10° 239° (WSW) 5,912 11.0 -11.1°
Maximum altitude 09:29:23 12° 223° (SW) 5,917 10.9 -10.8°
Enters shadow 09:31:49 11° 215° (SW) 5,996 10.9 -10.6°
Exits shadow 09:44:58 - 181° (S) 7,065 11.4 -9.7°
